Location: London
(51.5074°N, 0.1278°W)
Time: 04:35:54
(UTC+01:00)

Envisat - Pass Details

Date: 26 September 2021
Orbit: 764 x 766 km, 98.2° (Epoch: 26 October)

Event Time Altitude Azimuth Distance (km) Brightness Sun altitude
Rises 05:57:43 0° 17° (NNE) 3,246 6.6 -9.4°
Reaches altitude 10° 06:00:06 10° 22° (NNE) 2,315 5.9 -9.1°
Maximum altitude 06:05:06 54° 100° (E) 928 3.9 -8.3°
Drops below altitude 10° 06:10:03 10° 178° (S) 2,296 5.4 -7.5°
Sets 06:12:24 0° 183° (S) 3,218 6.1 -7.2°
